Regional Weather Roundup
Issued by NWS Sioux Falls, SD

Home | Current Version | Previous Version | Text Only | Print | Product List | Glossary Off
Versions: 1 2 3 4 5 6 7 8 9 10 11 12 13 14 15 16 17 18 19 20 21 22 23 24 25 26 27 28 29 30 31 32 33 34 35 36 37 38 39 40 41 42 43 44 45 46 47 48 49 50

000
ASUS43 KFSD 291502
RWRFSD

WEATHER ROUNDUP FOR SE SOUTH DAKOTA/SW MINNESOTA/NW IOWA
NATIONAL WEATHER SERVICE SIOUX FALLS SD
1000 AM CDT FRI MAY 29 2015

NOTE: "FAIR" INDICATES FEW OR NO CLOUDS BELOW 12,000 FEET WITH NO
SIGNIFICANT WEATHER AND OR OBSTRUCTIONS TO VISIBILITY.


SDZ038>040-050-052>070-291600-
SOUTHEAST SOUTH DAKOTA

CITY           SKY/WX    TMP DP  RH WIND       PRES   REMARKS
BROOKINGS      CLOUDY    61  57  88 N14       29.93R
CHAMBERLAIN    HVY RAIN  58  57  97 N28G35    29.98R
HURON            N/A    N/A N/A N/A MISG      29.96R
MADISON        LGT RAIN  63  63 100 N7        29.91S
MITCHELL       LGT RAIN  64  62  93 N15       29.92R FOG
SIOUX FALLS    LGT RAIN  65  62  90 CALM      29.90R
WINNER         CLOUDY    60  55  83 N21       30.00R
YANKTON        CLOUDY    64  61  88 W9        29.89F
$$

MNZ071-072-080-081-089-090-097-098-291600-
SOUTHWEST MINNESOTA

CITY           SKY/WX    TMP DP  RH WIND       PRES   REMARKS
FAIRMONT       CLOUDY    66  61  82 S13G20    29.90S
JACKSON        CLOUDY    64  64 100 SW8       29.92R FOG
LUVERNE        DRIZZLE   64  63  94 CALM      29.91S
MARSHALL       CLOUDY    63  57  82 N14       29.91S
MONTEVIDEO     LGT RAIN  63  63 100 N10       29.93S
PIPESTONE      CLOUDY    64  63  94 S2        29.91S
REDWOOD FALLS  LGT RAIN  65  61  87 N6        29.90R
TRACY          LGT RAIN  64  62  96 N9        29.92S
WINDOM         DRIZZLE   66  61  82 CALM      29.92S
WORTHINGTON    CLOUDY    64  61  88 S7        29.92S
$$

IAZ001>003-012>014-020>022-031-032-NEZ013-014-SDZ071-291600-
NORTHWEST IOWA

CITY           SKY/WX    TMP DP  RH WIND       PRES   REMARKS
DENISON        CLOUDY    66  66 100 SW6G15    29.92R
ESTHERVILLE    CLOUDY    65  63  93 S16       29.90S
SIOUX CITY     CLOUDY    67  60  78 SW6       29.91R
SPENCER        LGT RAIN  66  64  93 S12       29.91S FOG
$$

ABBREVIATIONS USED IN REMARKS
   TC - TEMPERATURE IN CELSIUS
  WCI - WIND CHILL INDEX
   HX - HEAT INDEX
  VSB - VISIBILITY




USA.gov is the U.S. government's official web portal to all federal, state and local government web resources and services.